{"data":{"norad_id":32265,"intl_designator":"2007-048C","name":"GLOBALSTAR M066","alt_names":[],"object_type":"PAYLOAD","status":"ACTIVE","operator":null,"country":"GLOB","launch_date":"2007-10-20","launch_site_code":"TYMSC","launch_vehicle":null,"mission":null,"orbit_class":"UNKNOWN","rcs_meters":1.9408,"size_class":null,"mass_kg":null,"dimensions":null,"purposes":["comms"],"wikipedia_slug":null,"has_3d_model":false,"image_url":null,"decayed_at":null,"tle_current":{"epoch":"2026-09-19T09:59:59.791200Z","epoch_age_seconds":107955,"freshness":"FRESH","line1":"1 32265U 07048C   26262.41666425 -.00000087  00000+0  61494-4 0  9992","line2":"2 32265  51.9581 147.4064 0004012 237.7571 293.4453 12.30390833871822","mean_motion":12.30390833,"eccentricity":0.0004012,"inclination_deg":51.9581,"raan_deg":147.4064,"arg_perigee_deg":237.7571,"mean_anomaly_deg":293.4453,"bstar":6.1494e-5,"rev_number":87182,"period_min":117.03598250069,"perigee_km":1544.4225010435,"apogee_km":1550.782114264,"semimajor_km":7925.7393076538,"source":"CELESTRAK","updated_at":"2026-09-20T09:00:45.017571Z"}}}